Flight Track Log - Related Links

Times and Time Zones

All times are in EDT time to prevent confusion due to time zone crossing. See the N848TC flight status page for this flight to view local times or setup timezone preferences in your user account.

Time Position Orientation Groundspeed Altitude Reporting Facility
EDT Latitude Longitude Course Direction KTS MPH feet Rate Location/Type
Mon 01:26:14 PM 26.2358 -81.8383 North 235 270 7,400  Level Miami Center
Mon 01:27:14 PM 26.2969 -81.8178 17° North 235 270 10,400 2,300 Climbing Miami Center
Mon 01:28:14 PM 26.3614 -81.7647 36° Northeast 263 303 12,000 2,800 Climbing Miami Center
Mon 01:29:14 PM 26.4369 -81.6936 40° Northeast 330 380 16,000 1,950 Climbing Miami Center
Mon 01:30:00 PM 26.5650 -81.7500 North  Level FlightAware Approximate
Mon 01:30:14 PM 26.5192 -81.6692 15° North 340 391 15,900  Level Miami Center
Mon 01:31:00 PM 26.6345 -81.7500 North  Level FlightAware Approximate
Mon 01:31:14 PM 26.6214 -81.6711 359° North 330 380 15,900  Level Miami Center
Mon 01:32:14 PM 26.7267 -81.7011 346° North 352 405 15,900 50 Level Miami Center
Mon 01:33:14 PM 26.8303 -81.7239 349° North 373 429 16,000 -600 Climbing Miami Center
Mon 01:34:14 PM 26.9297 -81.7489 347° North 373 429 14,700 -1,050 Descending Miami Center
Mon 01:35:14 PM 27.0228 -81.7717 348° North 353 406 13,900 -350 Descending Miami Center
Mon 01:36:14 PM 27.1161 -81.7964 347° North 348 400 14,000  Climbing Miami Center
Mon 01:37:14 PM 27.2092 -81.8192 348° North 348 400 13,900 -650 Descending Miami Center
Mon 01:38:14 PM 27.3022 -81.8442 347° North 343 395 12,700 -1,550 Descending Miami Center
Mon 01:39:14 PM 27.3997 -81.8625 351° North 343 395 10,800 -1,750 Descending Miami Center
Mon 01:40:14 PM 27.4800 -81.8964 339° North 330 380 9,200 -1,250 Descending Miami Center
Mon 01:41:14 PM 27.5461 -81.9156 346° North 256 295 8,300 -1,050 Descending Miami Center
Mon 01:42:14 PM 27.6058 -81.9369 342° North 214 246 7,100 -1,400 Descending Miami Center
Mon 01:43:14 PM 27.6781 -81.9614 343° North 244 281 5,500 -1,550 Descending Miami Center
Mon 01:44:14 PM 27.7439 -81.9806 346° North 268 308 4,000 -750 Descending Miami Center
Mon 01:45:14 PM 27.8206 -82.0006 347° North 253 291 4,000 -397 Level Miami Center
Mon 01:46:15 PM 27.8833 -82.0167 347° North 260 299 3,200 -1,041 Descending Tampa TRACON
Mon 01:47:15 PM 27.9500 -82.0500 336° Northwest 222 255 1,900 -1,006 Descending Tampa TRACON
Mon 01:49:14 PM 28.0050 -82.0347 14° North 113 130 200 4,726 Descending Miami Center
Mon 01:50:14 PM 28.0364 -82.0314 North 113 130 16,000 7,900 Climbing Miami Center
Mon 01:51:14 PM 28.0678 -82.0258 North 113 130 16,000  Level Miami Center

Login

Don't have an account? Register now (free) for customized features, flight alerts, and more!